{"data":{"norad_id":62424,"epoch":"2026-05-25T00:34:17.465664Z","epoch_age_seconds":73010,"freshness":"FRESH","line1":"1 62424U 24249R   26145.02381326  .00017853  00000+0  65678-3 0  9990","line2":"2 62424  43.0020 254.6101 0002412 297.0474  63.0131 15.27574778 79351","mean_motion":15.27574778,"eccentricity":0.0002412,"inclination_deg":43.002,"raan_deg":254.6101,"arg_perigee_deg":297.0474,"mean_anomaly_deg":63.0131,"bstar":0.00065678,"rev_number":7935,"period_min":94.267070963645,"perigee_km":481.40981077289,"apogee_km":484.71965448871,"semimajor_km":6861.2017326308,"source":"CELESTRAK","updated_at":"2026-05-25T13:38:19.655253Z"}}